IN3ISU-10 Weather Reports


Display with metric or nautical units.
time (UTC)temp
F
wind
direction
speed
MPH
gust
MPH
rain 1hr
in
rain 24hr
in
rain mn
in
humidity
%
barometer
mb
20260502181534 66 190 6.0 0.0 0.00 0.00 0.00 49 101.9
20260502181427 66 190 6.0 0.0 0.00 0.00 0.00 49 101.9
20260502181321 66 190 6.0 0.0 0.00 0.00 0.00 49 101.9
20260502181215 66 190 6.0 0.0 0.00 0.00 0.00 49 101.9
20260502181109 66 190 6.0 0.0 0.00 0.00 0.00 49 101.9
20260502181003 66 190 6.0 0.0 0.00 0.00 0.00 49 101.9
20260502180856 66 190 6.0 0.0 0.00 0.00 0.00 49 101.9
20260502180750 66 190 6.0 0.0 0.00 0.00 0.00 49 101.9
20260502180644 66 190 7.0 0.0 0.00 0.00 0.00 49 102.1
20260502180537 66 190 7.0 0.0 0.00 0.00 0.00 49 102.1
20260502180431 66 190 7.0 0.0 0.00 0.00 0.00 49 102.1
20260502180325 66 190 7.0 0.0 0.00 0.00 0.00 49 102.1
20260502180218 66 190 7.0 0.0 0.00 0.00 0.00 49 102.1
20260502180112 66 190 7.0 0.0 0.00 0.00 0.00 49 102.1
20260502170449 73 167 8.0 16.0 0.00 0.00 0.00 33 102.0
20260502170342 73 167 8.0 16.0 0.00 0.00 0.00 33 102.0
20260502170236 73 167 8.0 16.0 0.00 0.00 0.00 33 102.0
20260502170130 73 167 8.0 16.0 0.00 0.00 0.00 33 102.0
20260502164243 73 158 7.0 11.0 0.00 0.00 0.00 33 102.1
20260502164137 73 158 7.0 11.0 0.00 0.00 0.00 33 102.1
20260502164031 73 158 7.0 11.0 0.00 0.00 0.00 33 102.1
20260502163924 73 158 7.0 11.0 0.00 0.00 0.00 33 102.1
20260502163818 73 158 7.0 11.0 0.00 0.00 0.00 33 102.1
20260502163712 73 158 8.0 13.0 0.00 0.00 0.00 33 102.0
20260502163606 73 158 8.0 13.0 0.00 0.00 0.00 33 102.0
20260502163459 73 158 8.0 13.0 0.00 0.00 0.00 33 102.0
20260502163353 73 158 8.0 13.0 0.00 0.00 0.00 33 102.0
20260502163247 73 158 8.0 13.0 0.00 0.00 0.00 33 102.0
20260502163141 73 158 8.0 13.0 0.00 0.00 0.00 33 102.0
20260502163035 73 158 8.0 13.0 0.00 0.00 0.00 33 102.0
20260502162928 73 158 8.0 13.0 0.00 0.00 0.00 33 102.0
20260502162822 73 158 9.0 15.0 0.00 0.00 0.00 32 102.0
20260502162716 73 158 9.0 15.0 0.00 0.00 0.00 32 102.0
20260502162610 73 158 9.0 15.0 0.00 0.00 0.00 32 102.0
20260502162504 73 158 9.0 15.0 0.00 0.00 0.00 32 102.0
20260502162357 73 158 9.0 15.0 0.00 0.00 0.00 32 102.0
20260502162251 73 158 9.0 15.0 0.00 0.00 0.00 32 102.0
20260502162145 73 158 9.0 15.0 0.00 0.00 0.00 32 102.0
20260502162039 74 158 10.0 17.0 0.00 0.00 0.00 30 101.9
20260502161932 74 158 10.0 17.0 0.00 0.00 0.00 30 101.9
20260502161826 74 158 10.0 17.0 0.00 0.00 0.00 30 101.9
20260502161720 74 158 10.0 17.0 0.00 0.00 0.00 30 101.9
20260502161614 74 158 10.0 17.0 0.00 0.00 0.00 30 101.9
20260502161507 74 158 10.0 17.0 0.00 0.00 0.00 30 101.9
20260502161401 74 158 10.0 17.0 0.00 0.00 0.00 30 101.9
20260502161250 74 158 10.0 17.0 0.00 0.00 0.00 30 101.9
20260502161144 74 158 10.0 17.0 0.00 0.00 0.00 30 101.9
20260502161038 74 188 7.0 18.0 0.00 0.00 0.00 27 101.9
20260502160931 74 188 7.0 18.0 0.00 0.00 0.00 27 101.9
20260502160825 74 188 7.0 18.0 0.00 0.00 0.00 27 101.9
20260502160719 74 188 7.0 18.0 0.00 0.00 0.00 27 101.9
20260502160613 74 188 7.0 18.0 0.00 0.00 0.00 27 101.9
20260502160506 74 188 7.0 18.0 0.00 0.00 0.00 27 101.9
20260502160400 74 188 7.0 18.0 0.00 0.00 0.00 27 101.9
20260502160254 74 188 7.0 18.0 0.00 0.00 0.00 27 101.9
20260502160148 74 188 7.0 18.0 0.00 0.00 0.00 27 101.9
20260502152310 75 190 9.0 16.0 0.00 0.00 0.00 27 101.9
20260502152203 75 190 9.0 16.0 0.00 0.00 0.00 27 101.9
20260502152057 75 190 9.0 16.0 0.00 0.00 0.00 27 101.9
20260502151951 75 190 10.0 18.0 0.00 0.00 0.00 27 101.9
20260502151845 75 190 10.0 18.0 0.00 0.00 0.00 27 101.9
20260502151738 75 190 10.0 18.0 0.00 0.00 0.00 27 101.9
20260502151632 75 190 10.0 18.0 0.00 0.00 0.00 27 101.9
20260502151526 75 190 10.0 18.0 0.00 0.00 0.00 27 101.9
20260502151420 75 190 10.0 18.0 0.00 0.00 0.00 27 101.9
20260502151313 75 190 10.0 18.0 0.00 0.00 0.00 27 101.9
20260502151207 75 190 10.0 18.0 0.00 0.00 0.00 27 101.9
20260502151101 75 190 10.0 18.0 0.00 0.00 0.00 27 101.9
20260502150955 75 190 10.0 18.0 0.00 0.00 0.00 27 101.9
20260502150849 75 205 9.0 18.0 0.00 0.00 0.00 27 102.0
20260502150742 75 205 9.0 18.0 0.00 0.00 0.00 27 102.0
20260502150636 75 205 9.0 18.0 0.00 0.00 0.00 27 102.0
20260502150530 75 205 9.0 18.0 0.00 0.00 0.00 27 102.0
20260502150424 75 205 9.0 18.0 0.00 0.00 0.00 27 102.0
20260502150317 75 205 9.0 18.0 0.00 0.00 0.00 27 102.0
20260502150211 75 205 9.0 18.0 0.00 0.00 0.00 27 102.0
20260502150105 75 205 9.0 18.0 0.00 0.00 0.00 27 102.0
20260502130748 76 219 7.0 14.0 0.00 0.00 0.00 26 102.1
20260502130642 76 219 7.0 14.0 0.00 0.00 0.00 26 102.1
20260502130535 76 219 7.0 14.0 0.00 0.00 0.00 26 102.1
20260502130429 76 219 7.0 14.0 0.00 0.00 0.00 26 102.1
20260502130323 76 219 7.0 14.0 0.00 0.00 0.00 26 102.1
20260502130217 76 168 7.0 12.0 0.00 0.00 0.00 26 102.1
20260502130110 76 168 7.0 12.0 0.00 0.00 0.00 26 102.1
20260502123710 75 194 7.0 11.0 0.00 0.00 0.00 26 102.1
20260502123604 75 194 7.0 11.0 0.00 0.00 0.00 26 102.1
20260502123458 75 194 7.0 11.0 0.00 0.00 0.00 26 102.1
20260502123351 75 194 7.0 11.0 0.00 0.00 0.00 26 102.1
20260502123245 75 194 7.0 11.0 0.00 0.00 0.00 26 102.1
20260502123139 75 194 7.0 11.0 0.00 0.00 0.00 26 102.1
20260502123032 75 194 7.0 11.0 0.00 0.00 0.00 26 102.1
20260502122926 75 194 7.0 11.0 0.00 0.00 0.00 26 102.1
20260502122820 75 128 7.0 9.0 0.00 0.00 0.00 26 102.1
20260502122652 75 128 7.0 9.0 0.00 0.00 0.00 26 102.1
20260502122546 75 128 7.0 9.0 0.00 0.00 0.00 26 102.1
20260502122439 75 128 8.0 10.0 0.00 0.00 0.00 26 102.1
20260502122333 75 128 8.0 10.0 0.00 0.00 0.00 26 102.1
20260502122227 75 128 8.0 10.0 0.00 0.00 0.00 26 102.1
20260502122121 74 128 9.0 12.0 0.00 0.00 0.00 27 102.1
20260502122014 74 128 9.0 12.0 0.00 0.00 0.00 27 102.1
20260502121908 74 128 9.0 12.0 0.00 0.00 0.00 27 102.1
20260502121801 74 128 9.0 12.0 0.00 0.00 0.00 27 102.1
20260502121655 74 128 9.0 12.0 0.00 0.00 0.00 27 102.1
20260502121548 74 128 9.0 12.0 0.00 0.00 0.00 27 102.1
20260502121441 74 128 9.0 12.0 0.00 0.00 0.00 27 102.1
20260502121335 74 128 9.0 12.0 0.00 0.00 0.00 27 102.1
20260502121229 74 128 9.0 12.0 0.00 0.00 0.00 27 102.1
20260502121123 74 128 9.0 12.0 0.00 0.00 0.00 27 102.1
20260502121016 74 123 9.0 12.0 0.00 0.00 0.00 28 102.2
20260502120910 74 123 9.0 12.0 0.00 0.00 0.00 28 102.2
20260502120804 74 123 9.0 12.0 0.00 0.00 0.00 28 102.2
20260502120658 74 123 9.0 12.0 0.00 0.00 0.00 28 102.2
20260502120551 74 123 9.0 12.0 0.00 0.00 0.00 28 102.2
20260502120445 74 123 9.0 12.0 0.00 0.00 0.00 28 102.2
20260502120339 74 123 9.0 12.0 0.00 0.00 0.00 28 102.2
20260502120233 74 123 9.0 12.0 0.00 0.00 0.00 28 102.2
20260502120127 74 123 9.0 12.0 0.00 0.00 0.00 28 102.2
20260502115914 74 123 9.0 12.0 0.00 0.00 0.00 28 102.2
20260502115808 74 123 9.0 12.0 0.00 0.00 0.00 28 102.2
20260502115702 74 123 9.0 12.0 0.00 0.00 0.00 28 102.2
20260502115555 73 123 9.0 12.0 0.00 0.00 0.00 30 102.2
20260502115448 73 123 9.0 12.0 0.00 0.00 0.00 30 102.2
20260502115342 73 123 9.0 12.0 0.00 0.00 0.00 30 102.2
20260502115236 73 123 9.0 12.0 0.00 0.00 0.00 30 102.2
20260502115130 73 123 9.0 12.0 0.00 0.00 0.00 30 102.2
20260502115023 73 123 9.0 12.0 0.00 0.00 0.00 30 102.2
20260502114917 73 123 9.0 12.0 0.00 0.00 0.00 30 102.2
20260502114810 73 123 9.0 12.0 0.00 0.00 0.00 30 102.2
20260502114703 73 123 9.0 12.0 0.00 0.00 0.00 30 102.2
20260502114557 73 123 9.0 12.0 0.00 0.00 0.00 30 102.2
20260502114450 72 180 4.0 9.0 0.00 0.00 0.00 33 102.2
20260502114344 72 180 4.0 9.0 0.00 0.00 0.00 33 102.2
20260502114238 72 180 4.0 9.0 0.00 0.00 0.00 33 102.2
20260502114131 72 180 4.0 9.0 0.00 0.00 0.00 33 102.2
20260502114025 72 180 4.0 9.0 0.00 0.00 0.00 33 102.2
20260502113919 72 180 4.0 9.0 0.00 0.00 0.00 33 102.2
20260502113813 72 0 3.0 0.0 0.00 0.00 0.00 32 102.3
20260502113706 72 0 3.0 0.0 0.00 0.00 0.00 32 102.3
20260502113600 72 0 3.0 0.0 0.00 0.00 0.00 32 102.3
20260502113454 72 0 3.0 0.0 0.00 0.00 0.00 32 102.3
20260502113348 72 0 3.0 0.0 0.00 0.00 0.00 32 102.3
20260502113242 72 0 3.0 0.0 0.00 0.00 0.00 32 102.3
20260502113135 72 0 3.0 0.0 0.00 0.00 0.00 32 102.3
20260502113029 72 0 3.0 0.0 0.00 0.00 0.00 32 102.3
20260502112923 72 0 3.0 0.0 0.00 0.00 0.00 32 102.3
20260502112817 72 0 3.0 0.0 0.00 0.00 0.00 32 102.3
20260502112711 72 0 3.0 0.0 0.00 0.00 0.00 33 102.3
20260502112604 71 0 3.0 0.0 0.00 0.00 0.00 35 102.3
20260502112458 71 0 3.0 0.0 0.00 0.00 0.00 35 102.3
20260502112352 71 0 3.0 0.0 0.00 0.00 0.00 35 102.3
20260502112246 71 0 3.0 0.0 0.00 0.00 0.00 35 102.3
20260502112139 71 0 3.0 0.0 0.00 0.00 0.00 35 102.3
20260502112033 71 0 3.0 0.0 0.00 0.00 0.00 35 102.3
20260502110522 69 0 3.0 0.0 0.00 0.00 0.00 41 102.3
20260502110415 69 0 3.0 0.0 0.00 0.00 0.00 41 102.3
20260502110309 69 0 3.0 0.0 0.00 0.00 0.00 41 102.3
20260502110202 69 0 3.0 0.0 0.00 0.00 0.00 41 102.3
20260502110056 69 0 3.0 0.0 0.00 0.00 0.00 41 102.3
20260502105950 69 0 3.0 0.0 0.00 0.00 0.00 41 102.3
20260502105844 69 0 3.0 0.0 0.00 0.00 0.00 41 102.3
20260502105737 69 0 3.0 0.0 0.00 0.00 0.00 41 102.3
20260502105631 69 281 3.0 6.0 0.00 0.00 0.00 35 102.3
20260502105525 69 281 3.0 6.0 0.00 0.00 0.00 35 102.3
20260502105419 69 281 3.0 6.0 0.00 0.00 0.00 35 102.3
20260502105312 69 281 3.0 6.0 0.00 0.00 0.00 35 102.3
20260502105206 69 281 3.0 6.0 0.00 0.00 0.00 35 102.3
20260502105100 69 281 3.0 6.0 0.00 0.00 0.00 35 102.3
20260502104954 69 281 3.0 6.0 0.00 0.00 0.00 35 102.3
20260502104847 69 196 2.0 6.0 0.00 0.00 0.00 36 102.3
20260502104741 69 196 2.0 6.0 0.00 0.00 0.00 36 102.3
20260502104635 69 196 2.0 6.0 0.00 0.00 0.00 36 102.3
20260502104529 69 196 2.0 6.0 0.00 0.00 0.00 36 102.3
20260502104422 69 196 2.0 6.0 0.00 0.00 0.00 36 102.3
20260502104316 69 196 2.0 6.0 0.00 0.00 0.00 36 102.3
20260502104210 69 196 2.0 6.0 0.00 0.00 0.00 36 102.3
20260502104104 69 196 2.0 6.0 0.00 0.00 0.00 36 102.3
20260502103957 69 196 2.0 6.0 0.00 0.00 0.00 36 102.3
20260502103851 69 196 2.0 6.0 0.00 0.00 0.00 36 102.3
20260502103745 66 0 3.0 0.0 0.00 0.00 0.00 46 102.4
20260502103639 66 0 3.0 0.0 0.00 0.00 0.00 46 102.4
20260502103532 66 0 3.0 0.0 0.00 0.00 0.00 46 102.4
20260502103426 66 0 3.0 0.0 0.00 0.00 0.00 46 102.4
20260502103320 66 0 3.0 0.0 0.00 0.00 0.00 46 102.4
20260502103214 66 0 3.0 0.0 0.00 0.00 0.00 46 102.4
20260502103108 66 0 3.0 0.0 0.00 0.00 0.00 46 102.4
20260502103001 66 0 3.0 0.0 0.00 0.00 0.00 46 102.4
20260502102855 66 0 3.0 0.0 0.00 0.00 0.00 46 102.4
20260502102749 66 0 3.0 0.0 0.00 0.00 0.00 46 102.4
20260502102642 66 0 3.0 0.0 0.00 0.00 0.00 46 102.4
20260502102536 66 0 3.0 0.0 0.00 0.00 0.00 46 102.4
20260502102430 66 0 3.0 0.0 0.00 0.00 0.00 46 102.4
20260502102324 66 0 3.0 0.0 0.00 0.00 0.00 46 102.4
20260502102217 66 0 3.0 0.0 0.00 0.00 0.00 46 102.4
20260502102111 66 0 3.0 0.0 0.00 0.00 0.00 46 102.4
20260502102005 66 0 3.0 0.0 0.00 0.00 0.00 46 102.4
20260502101859 66 0 3.0 0.0 0.00 0.00 0.00 46 102.4
20260502101752 66 0 3.0 0.0 0.00 0.00 0.00 46 102.4
20260502101646 66 0 3.0 0.0 0.00 0.00 0.00 46 102.4
20260502101540 66 0 3.0 0.0 0.00 0.00 0.00 46 102.4
20260502101433 66 144 2.0 3.0 0.00 0.00 0.00 46 102.4
20260502101327 66 144 2.0 3.0 0.00 0.00 0.00 46 102.4
20260502101221 66 144 2.0 3.0 0.00 0.00 0.00 46 102.4
20260502101115 67 144 2.0 3.0 0.00 0.00 0.00 41 102.4
20260502101008 66 144 2.0 3.0 0.00 0.00 0.00 48 102.4
20260502100902 66 144 2.0 3.0 0.00 0.00 0.00 48 102.4
20260502100756 66 144 2.0 3.0 0.00 0.00 0.00 48 102.4
20260502100650 66 144 2.0 3.0 0.00 0.00 0.00 48 102.4
20260502100543 66 144 2.0 3.0 0.00 0.00 0.00 48 102.4
20260502100437 66 144 2.0 3.0 0.00 0.00 0.00 48 102.4
20260502100331 66 144 2.0 3.0 0.00 0.00 0.00 48 102.4
20260502100225 66 144 2.0 3.0 0.00 0.00 0.00 48 102.4
20260502100118 66 144 2.0 3.0 0.00 0.00 0.00 48 102.4
20260502091456 65 128 2.0 3.0 0.00 0.00 0.00 55 102.4
20260502091350 65 128 2.0 3.0 0.00 0.00 0.00 55 102.4
20260502091244 65 128 2.0 3.0 0.00 0.00 0.00 55 102.4
20260502091138 61 0 2.0 0.0 0.00 0.00 0.00 70 102.5
20260502091031 61 0 2.0 0.0 0.00 0.00 0.00 70 102.5
20260502090925 61 0 2.0 0.0 0.00 0.00 0.00 70 102.5
20260502090819 61 0 2.0 0.0 0.00 0.00 0.00 70 102.5
20260502090713 61 0 2.0 0.0 0.00 0.00 0.00 70 102.5
20260502090607 61 0 2.0 0.0 0.00 0.00 0.00 70 102.5
20260502090500 61 0 2.0 0.0 0.00 0.00 0.00 70 102.5
20260502090354 61 0 2.0 0.0 0.00 0.00 0.00 70 102.5
20260502090248 61 0 2.0 0.0 0.00 0.00 0.00 70 102.5
20260502090141 61 0 2.0 0.0 0.00 0.00 0.00 70 102.5
20260502071436 58 240 4.0 0.0 0.00 0.00 0.00 50 102.6
20260502071330 58 240 4.0 0.0 0.00 0.00 0.00 50 102.6
20260502071223 58 240 4.0 0.0 0.00 0.00 0.00 50 102.6
20260502071117 58 240 4.0 0.0 0.00 0.00 0.00 50 102.6
20260502071011 58 240 4.0 0.0 0.00 0.00 0.00 50 102.6
20260502070905 58 240 4.0 0.0 0.00 0.00 0.00 50 102.6
20260502070758 58 240 5.0 0.0 0.00 0.00 0.00 50 102.6
20260502070652 58 240 5.0 0.0 0.00 0.00 0.00 50 102.6
20260502070546 58 240 5.0 0.0 0.00 0.00 0.00 50 102.6
20260502070440 58 240 5.0 0.0 0.00 0.00 0.00 50 102.6
20260502070334 58 240 5.0 0.0 0.00 0.00 0.00 50 102.6
20260502070227 58 240 5.0 0.0 0.00 0.00 0.00 50 102.6
20260502070121 58 240 5.0 0.0 0.00 0.00 0.00 50 102.6
20260502070015 58 240 5.0 0.0 0.00 0.00 0.00 50 102.6
20260502065909 58 240 5.0 0.0 0.00 0.00 0.00 50 102.6
20260502065803 58 240 5.0 0.0 0.00 0.00 0.00 50 102.6
20260502065656 58 240 5.0 0.0 0.00 0.00 0.00 50 102.6
20260502065550 58 240 5.0 0.0 0.00 0.00 0.00 50 102.6
20260502065444 58 240 5.0 0.0 0.00 0.00 0.00 50 102.6
20260502065338 58 240 5.0 0.0 0.00 0.00 0.00 50 102.6
20260502065231 58 240 5.0 0.0 0.00 0.00 0.00 50 102.6
20260502065125 58 240 5.0 0.0 0.00 0.00 0.00 50 102.6
20260502065019 58 240 5.0 0.0 0.00 0.00 0.00 50 102.6
20260502064913 57 220 5.0 0.0 0.00 0.00 0.00 50 102.6
20260502064806 57 220 5.0 0.0 0.00 0.00 0.00 50 102.6
20260502064700 57 220 5.0 0.0 0.00 0.00 0.00 50 102.6
20260502064554 57 220 5.0 0.0 0.00 0.00 0.00 50 102.6
20260502064448 57 220 5.0 0.0 0.00 0.00 0.00 50 102.6
20260502064342 57 220 5.0 0.0 0.00 0.00 0.00 50 102.6
20260502064235 57 220 5.0 0.0 0.00 0.00 0.00 50 102.6
20260502064129 57 220 5.0 0.0 0.00 0.00 0.00 50 102.6
20260502064023 57 220 5.0 0.0 0.00 0.00 0.00 50 102.6
20260502063917 57 220 5.0 0.0 0.00 0.00 0.00 50 102.6
20260502063810 56 220 6.0 0.0 0.00 0.00 0.00 50 102.6
20260502063704 56 220 6.0 0.0 0.00 0.00 0.00 50 102.6
20260502063558 56 220 6.0 0.0 0.00 0.00 0.00 50 102.6
20260502063451 56 220 6.0 0.0 0.00 0.00 0.00 50 102.6
20260502063345 56 220 6.0 0.0 0.00 0.00 0.00 50 102.6
20260502063239 56 220 6.0 0.0 0.00 0.00 0.00 50 102.6
20260502063133 56 220 6.0 0.0 0.00 0.00 0.00 50 102.6
20260502063026 56 220 6.0 0.0 0.00 0.00 0.00 50 102.6
20260502062920 56 220 6.0 0.0 0.00 0.00 0.00 50 102.6
20260502062814 56 220 6.0 0.0 0.00 0.00 0.00 50 102.6
20260502062707 56 220 7.0 0.0 0.00 0.00 0.00 50 102.6
20260502062601 56 220 8.0 0.0 0.00 0.00 0.00 49 102.7
20260502062455 56 220 8.0 0.0 0.00 0.00 0.00 49 102.7
20260502062349 56 220 8.0 0.0 0.00 0.00 0.00 49 102.7
20260502062243 56 220 8.0 0.0 0.00 0.00 0.00 49 102.7
20260502062136 56 220 8.0 0.0 0.00 0.00 0.00 49 102.7
20260502062030 56 220 8.0 0.0 0.00 0.00 0.00 49 102.7
20260502061924 56 220 8.0 0.0 0.00 0.00 0.00 49 102.7
20260502061818 56 220 8.0 0.0 0.00 0.00 0.00 49 102.7
20260502061605 55 220 9.0 0.0 0.00 0.00 0.00 48 102.7
20260502061459 55 220 9.0 0.0 0.00 0.00 0.00 48 102.7
20260502061353 55 220 9.0 0.0 0.00 0.00 0.00 48 102.7
20260502061247 55 220 9.0 0.0 0.00 0.00 0.00 48 102.7
20260502061140 55 220 9.0 0.0 0.00 0.00 0.00 48 102.7
20260502061034 55 220 9.0 0.0 0.00 0.00 0.00 48 102.7
20260502060928 55 220 9.0 0.0 0.00 0.00 0.00 48 102.7
20260502060821 55 220 9.0 0.0 0.00 0.00 0.00 48 102.7
20260502060715 55 220 9.0 0.0 0.00 0.00 0.00 48 102.7
20260502060609 55 220 9.0 0.0 0.00 0.00 0.00 48 102.7
20260502060503 54 220 10.0 0.0 0.00 0.00 0.00 58 102.7
20260502060356 54 220 10.0 0.0 0.00 0.00 0.00 58 102.7
20260502060250 54 220 10.0 0.0 0.00 0.00 0.00 58 102.7
20260502060144 54 220 10.0 0.0 0.00 0.00 0.00 58 102.7
20260502060038 54 220 10.0 0.0 0.00 0.00 0.00 58 102.7
20260502055932 54 220 10.0 0.0 0.00 0.00 0.00 58 102.7
20260502055825 54 220 10.0 0.0 0.00 0.00 0.00 58 102.7
20260502055719 53 220 10.0 0.0 0.00 0.00 0.00 58 102.7
20260502055613 53 220 10.0 0.0 0.00 0.00 0.00 58 102.7
20260502055507 53 220 10.0 0.0 0.00 0.00 0.00 58 102.7
20260502055401 53 220 10.0 0.0 0.00 0.00 0.00 58 102.7
20260502055254 53 220 10.0 0.0 0.00 0.00 0.00 58 102.7
20260502055148 53 220 10.0 0.0 0.00 0.00 0.00 58 102.7
20260502055042 53 220 10.0 0.0 0.00 0.00 0.00 58 102.7
20260502054936 53 220 10.0 0.0 0.00 0.00 0.00 58 102.7
20260502054829 53 220 10.0 0.0 0.00 0.00 0.00 58 102.7
20260502054723 52 220 10.0 0.0 0.00 0.00 0.00 51 102.7
20260502054617 52 220 10.0 0.0 0.00 0.00 0.00 51 102.7
20260502054510 52 220 10.0 0.0 0.00 0.00 0.00 51 102.7
20260502054404 52 220 10.0 0.0 0.00 0.00 0.00 51 102.7
20260502054258 52 220 10.0 0.0 0.00 0.00 0.00 51 102.7
20260502054152 52 220 10.0 0.0 0.00 0.00 0.00 51 102.7
20260502054047 52 220 10.0 0.0 0.00 0.00 0.00 51 102.7
20260502053938 52 220 10.0 0.0 0.00 0.00 0.00 51 102.7
20260502053832 52 220 10.0 0.0 0.00 0.00 0.00 51 102.7
20260502053725 51 210 7.0 0.0 0.00 0.00 0.00 41 102.7
20260502053619 51 210 7.0 0.0 0.00 0.00 0.00 41 102.7
20260502053513 51 210 7.0 0.0 0.00 0.00 0.00 41 102.7
20260502053407 51 210 7.0 0.0 0.00 0.00 0.00 41 102.7
20260502053301 51 210 7.0 0.0 0.00 0.00 0.00 41 102.7
20260502053154 51 210 7.0 0.0 0.00 0.00 0.00 41 102.7
20260502053048 51 210 7.0 0.0 0.00 0.00 0.00 41 102.7
20260502052942 51 210 7.0 0.0 0.00 0.00 0.00 41 102.7
20260502052836 51 210 7.0 0.0 0.00 0.00 0.00 41 102.7
20260502052729 51 210 7.0 0.0 0.00 0.00 0.00 41 102.7
20260502052623 51 210 8.0 0.0 0.00 0.00 0.00 44 102.7
20260502052517 51 210 8.0 0.0 0.00 0.00 0.00 44 102.7
20260502052410 51 210 8.0 0.0 0.00 0.00 0.00 44 102.7
20260502052306 51 210 8.0 0.0 0.00 0.00 0.00 44 102.7
20260502052158 51 210 8.0 0.0 0.00 0.00 0.00 44 102.7
20260502052051 51 210 8.0 0.0 0.00 0.00 0.00 44 102.7
20260502051945 51 210 8.0 0.0 0.00 0.00 0.00 44 102.7
20260502051839 51 210 9.0 0.0 0.00 0.00 0.00 48 102.8
20260502051733 51 210 9.0 0.0 0.00 0.00 0.00 48 102.8
20260502051626 51 210 9.0 0.0 0.00 0.00 0.00 48 102.8
20260502051520 51 210 9.0 0.0 0.00 0.00 0.00 48 102.8
20260502051414 51 210 9.0 0.0 0.00 0.00 0.00 48 102.8
20260502051308 51 210 9.0 0.0 0.00 0.00 0.00 48 102.8
20260502051201 51 210 9.0 0.0 0.00 0.00 0.00 48 102.8
20260502051055 51 210 9.0 0.0 0.00 0.00 0.00 48 102.8
20260502050949 51 210 9.0 0.0 0.00 0.00 0.00 48 102.8
20260502050843 51 210 9.0 0.0 0.00 0.00 0.00 48 102.8
20260502050736 51 210 10.0 0.0 0.00 0.00 0.00 54 102.8
20260502050630 51 210 10.0 0.0 0.00 0.00 0.00 54 102.8
20260502050524 51 210 10.0 0.0 0.00 0.00 0.00 54 102.8
20260502050418 51 210 10.0 0.0 0.00 0.00 0.00 54 102.8
20260502050311 51 210 10.0 0.0 0.00 0.00 0.00 54 102.8
20260502050205 51 210 10.0 0.0 0.00 0.00 0.00 54 102.8
20260502050059 51 210 10.0 0.0 0.00 0.00 0.00 54 102.8
20260502045953 51 210 10.0 0.0 0.00 0.00 0.00 54 102.8
20260502045847 51 210 10.0 0.0 0.00 0.00 0.00 54 102.8
20260502045740 51 210 10.0 0.0 0.00 0.00 0.00 54 102.8
20260502045634 50 210 10.0 0.0 0.00 0.00 0.00 56 102.8
20260502045528 50 210 10.0 0.0 0.00 0.00 0.00 56 102.8
20260502045422 50 210 10.0 0.0 0.00 0.00 0.00 56 102.8
20260502045315 50 210 10.0 0.0 0.00 0.00 0.00 56 102.8
20260502045209 50 210 10.0 0.0 0.00 0.00 0.00 56 102.8
20260502045103 50 210 10.0 0.0 0.00 0.00 0.00 56 102.8
20260502044957 50 210 10.0 0.0 0.00 0.00 0.00 56 102.8
20260502044850 47 204 2.0 3.0 0.00 0.00 0.00 61 102.8
20260502044744 47 204 2.0 3.0 0.00 0.00 0.00 61 102.8
20260502044638 47 204 2.0 3.0 0.00 0.00 0.00 61 102.8
20260502044532 47 204 2.0 3.0 0.00 0.00 0.00 61 102.8
20260502044425 47 204 2.0 3.0 0.00 0.00 0.00 61 102.8
20260502044319 47 204 2.0 3.0 0.00 0.00 0.00 61 102.8
20260502044213 47 204 2.0 3.0 0.00 0.00 0.00 61 102.8
20260502044107 47 204 2.0 3.0 0.00 0.00 0.00 61 102.8
20260502044001 47 204 2.0 3.0 0.00 0.00 0.00 61 102.8
20260502043854 47 204 2.0 3.0 0.00 0.00 0.00 61 102.8
20260502043748 47 204 2.0 3.0 0.00 0.00 0.00 61 102.7
20260502043642 47 204 2.0 3.0 0.00 0.00 0.00 61 102.7
20260502043535 47 204 2.0 3.0 0.00 0.00 0.00 61 102.7
20260502043429 47 204 2.0 3.0 0.00 0.00 0.00 61 102.7
20260502043323 47 204 2.0 3.0 0.00 0.00 0.00 61 102.7
20260502043218 47 204 2.0 3.0 0.00 0.00 0.00 61 102.7
20260502043110 47 204 2.0 3.0 0.00 0.00 0.00 61 102.7
20260502043004 47 204 2.0 3.0 0.00 0.00 0.00 61 102.7
20260502042858 47 204 2.0 3.0 0.00 0.00 0.00 61 102.7
20260502042751 47 204 2.0 3.0 0.00 0.00 0.00 61 102.7
20260502042645 47 204 2.0 3.0 0.00 0.00 0.00 61 102.7
20260502042539 47 204 2.0 3.0 0.00 0.00 0.00 61 102.7
20260502042433 47 204 2.0 3.0 0.00 0.00 0.00 61 102.7
20260502042327 47 204 2.0 3.0 0.00 0.00 0.00 61 102.7
20260502042220 47 204 2.0 3.0 0.00 0.00 0.00 61 102.7
20260502042114 47 204 2.0 3.0 0.00 0.00 0.00 61 102.7
20260502042008 47 204 2.0 3.0 0.00 0.00 0.00 61 102.7
20260502041902 47 204 2.0 3.0 0.00 0.00 0.00 61 102.7
20260502041755 47 204 2.0 3.0 0.00 0.00 0.00 61 102.7
20260502041649 47 204 2.0 3.0 0.00 0.00 0.00 61 102.7
20260502041543 47 204 2.0 3.0 0.00 0.00 0.00 61 102.7
20260502041437 47 204 2.0 3.0 0.00 0.00 0.00 61 102.7
20260502041330 47 204 2.0 3.0 0.00 0.00 0.00 61 102.7
20260502041224 47 204 2.0 3.0 0.00 0.00 0.00 61 102.7
20260502041118 47 204 2.0 3.0 0.00 0.00 0.00 61 102.8
20260502041011 47 204 2.0 3.0 0.00 0.00 0.00 61 102.8
20260502040905 47 204 2.0 3.0 0.00 0.00 0.00 61 102.8
20260502040759 47 204 2.0 3.0 0.00 0.00 0.00 61 102.8
20260502040652 47 204 2.0 3.0 0.00 0.00 0.00 61 102.8
20260502040546 47 204 2.0 3.0 0.00 0.00 0.00 61 102.8
20260502040440 47 204 2.0 3.0 0.00 0.00 0.00 61 102.8
20260502040334 47 204 2.0 3.0 0.00 0.00 0.00 61 102.8
20260502040227 47 204 2.0 3.0 0.00 0.00 0.00 61 102.8
20260502040121 47 204 2.0 3.0 0.00 0.00 0.00 61 102.8
20260502040015 47 204 2.0 3.0 0.00 0.00 0.00 61 102.8
20260502035909 47 204 2.0 3.0 0.00 0.00 0.00 61 102.8
20260502035802 47 204 2.0 3.0 0.00 0.00 0.00 61 102.8
20260502035656 47 204 2.0 3.0 0.00 0.00 0.00 61 102.8
20260502035550 47 204 2.0 3.0 0.00 0.00 0.00 61 102.8
20260502035444 47 204 2.0 3.0 0.00 0.00 0.00 61 102.8
20260502035337 47 204 2.0 3.0 0.00 0.00 0.00 61 102.8
20260502035231 47 204 2.0 3.0 0.00 0.00 0.00 61 102.8
20260502035125 47 204 2.0 3.0 0.00 0.00 0.00 61 102.8
20260502035019 47 204 2.0 3.0 0.00 0.00 0.00 61 102.8
20260502034912 47 204 2.0 3.0 0.00 0.00 0.00 61 102.8
20260502034806 47 204 2.0 3.0 0.00 0.00 0.00 61 102.8
20260502034700 47 204 2.0 3.0 0.00 0.00 0.00 61 102.8
20260502034554 47 204 2.0 3.0 0.00 0.00 0.00 61 102.8
20260502034448 47 204 2.0 3.0 0.00 0.00 0.00 61 102.8
20260502034341 47 204 2.0 3.0 0.00 0.00 0.00 61 102.8
20260502034235 47 204 2.0 3.0 0.00 0.00 0.00 61 102.8
20260502034129 47 204 2.0 3.0 0.00 0.00 0.00 61 102.8
20260502034023 47 204 2.0 3.0 0.00 0.00 0.00 61 102.8
20260502033917 47 204 2.0 3.0 0.00 0.00 0.00 61 102.8
20260502033810 47 204 2.0 3.0 0.00 0.00 0.00 62 102.8
20260502033704 47 204 2.0 3.0 0.00 0.00 0.00 62 102.8
20260502033558 47 204 2.0 3.0 0.00 0.00 0.00 62 102.8
20260502033452 47 204 2.0 3.0 0.00 0.00 0.00 62 102.8
20260502033345 47 204 2.0 3.0 0.00 0.00 0.00 62 102.7
20260502033239 47 204 2.0 3.0 0.00 0.00 0.00 62 102.7
20260502033133 47 204 2.0 3.0 0.00 0.00 0.00 62 102.7
20260502033027 47 204 2.0 3.0 0.00 0.00 0.00 62 102.7
20260502032920 47 204 2.0 3.0 0.00 0.00 0.00 62 102.7
20260502032814 47 204 2.0 3.0 0.00 0.00 0.00 62 102.7
20260502032708 47 204 2.0 3.0 0.00 0.00 0.00 62 102.7
20260502032601 47 204 2.0 3.0 0.00 0.00 0.00 61 102.7
20260502032455 47 204 2.0 3.0 0.00 0.00 0.00 61 102.7
20260502032349 47 204 2.0 3.0 0.00 0.00 0.00 61 102.7
20260502032243 47 204 2.0 3.0 0.00 0.00 0.00 61 102.7
20260502032137 47 204 2.0 3.0 0.00 0.00 0.00 61 102.7
20260502032030 47 204 2.0 3.0 0.00 0.00 0.00 61 102.7
20260502031924 47 204 2.0 3.0 0.00 0.00 0.00 61 102.7
20260502031818 47 204 2.0 3.0 0.00 0.00 0.00 60 102.7
20260502031605 47 204 2.0 3.0 0.00 0.00 0.00 60 102.7
20260502031459 47 204 2.0 3.0 0.00 0.00 0.00 60 102.7
20260502031353 47 204 2.0 3.0 0.00 0.00 0.00 60 102.7
20260502031247 47 204 2.0 3.0 0.00 0.00 0.00 60 102.7
20260502031140 47 204 2.0 3.0 0.00 0.00 0.00 60 102.7
20260502031034 47 204 2.0 3.0 0.00 0.00 0.00 60 102.7
20260502030928 47 204 2.0 3.0 0.00 0.00 0.00 60 102.7
20260502030822 47 204 2.0 3.0 0.00 0.00 0.00 60 102.7
20260502030715 48 204 2.0 3.0 0.00 0.00 0.00 58 102.8
20260502030609 48 204 2.0 3.0 0.00 0.00 0.00 58 102.8
20260502030503 48 204 2.0 3.0 0.00 0.00 0.00 58 102.8
20260502030357 48 204 2.0 3.0 0.00 0.00 0.00 58 102.8
20260502030250 48 204 2.0 3.0 0.00 0.00 0.00 58 102.8
20260502030144 48 204 2.0 3.0 0.00 0.00 0.00 58 102.8
20260502030038 48 204 2.0 3.0 0.00 0.00 0.00 58 102.8
20260502025931 48 204 2.0 3.0 0.00 0.00 0.00 58 102.8
20260502025825 48 204 2.0 3.0 0.00 0.00 0.00 58 102.8
20260502025719 48 204 2.0 3.0 0.00 0.00 0.00 58 102.8
20260502025613 48 204 2.0 3.0 0.00 0.00 0.00 58 102.8
20260502025506 48 204 2.0 3.0 0.00 0.00 0.00 58 102.8
20260502025400 48 204 2.0 3.0 0.00 0.00 0.00 58 102.8
20260502025254 48 204 2.0 3.0 0.00 0.00 0.00 58 102.8
20260502025148 48 204 2.0 3.0 0.00 0.00 0.00 58 102.8
20260502025041 48 204 2.0 3.0 0.00 0.00 0.00 58 102.8
20260502024935 48 204 2.0 3.0 0.00 0.00 0.00 58 102.8
20260502024829 48 204 2.0 3.0 0.00 0.00 0.00 58 102.8
20260502024725 48 204 2.0 3.0 0.00 0.00 0.00 58 102.8
20260502024615 48 204 2.0 3.0 0.00 0.00 0.00 58 102.8
20260502024509 48 204 2.0 3.0 0.00 0.00 0.00 58 102.8
20260502024403 48 204 2.0 3.0 0.00 0.00 0.00 58 102.8
20260502024257 48 204 2.0 3.0 0.00 0.00 0.00 58 102.8
20260502024151 48 204 2.0 3.0 0.00 0.00 0.00 58 102.8
20260502024045 48 204 2.0 3.0 0.00 0.00 0.00 58 102.8
20260502023938 48 204 2.0 3.0 0.00 0.00 0.00 58 102.8
20260502023832 48 204 2.0 3.0 0.00 0.00 0.00 58 102.8
20260502023726 48 204 2.0 3.0 0.00 0.00 0.00 58 102.7
20260502023619 48 204 2.0 3.0 0.00 0.00 0.00 58 102.7
20260502023513 48 204 2.0 3.0 0.00 0.00 0.00 58 102.7
20260502023407 48 204 2.0 3.0 0.00 0.00 0.00 58 102.7
20260502023301 48 204 2.0 3.0 0.00 0.00 0.00 58 102.7
20260502023155 48 204 2.0 3.0 0.00 0.00 0.00 58 102.7
20260502023049 48 204 2.0 3.0 0.00 0.00 0.00 58 102.7
20260502022942 48 204 2.0 3.0 0.00 0.00 0.00 58 102.7
20260502022836 48 204 2.0 3.0 0.00 0.00 0.00 58 102.7
20260502022730 48 204 2.0 3.0 0.00 0.00 0.00 58 102.7
20260502022623 48 204 2.0 3.0 0.00 0.00 0.00 58 102.7
20260502022517 48 204 2.0 3.0 0.00 0.00 0.00 58 102.7
20260502022411 48 204 2.0 3.0 0.00 0.00 0.00 58 102.7
20260502022306 48 204 2.0 3.0 0.00 0.00 0.00 58 102.7
20260502022159 48 204 2.0 3.0 0.00 0.00 0.00 58 102.7
20260502022052 48 204 2.0 3.0 0.00 0.00 0.00 58 102.7
20260502021946 48 204 2.0 3.0 0.00 0.00 0.00 58 102.7
20260502021840 49 204 2.0 3.0 0.00 0.00 0.00 57 102.7
20260502021733 49 204 2.0 3.0 0.00 0.00 0.00 57 102.7
20260502021627 49 204 2.0 3.0 0.00 0.00 0.00 57 102.7
20260502021521 49 204 2.0 3.0 0.00 0.00 0.00 57 102.7
20260502021414 49 204 2.0 3.0 0.00 0.00 0.00 57 102.7
20260502021308 49 204 2.0 3.0 0.00 0.00 0.00 57 102.7
20260502021202 49 204 2.0 3.0 0.00 0.00 0.00 57 102.7
20260502021055 49 204 2.0 3.0 0.00 0.00 0.00 57 102.7
20260502020949 49 204 2.0 3.0 0.00 0.00 0.00 57 102.7
20260502020843 49 204 2.0 3.0 0.00 0.00 0.00 57 102.7
20260502020736 49 204 2.0 3.0 0.00 0.00 0.00 57 102.7
20260502020630 49 204 2.0 3.0 0.00 0.00 0.00 56 102.8
20260502020524 49 204 2.0 3.0 0.00 0.00 0.00 56 102.8
20260502020418 49 204 2.0 3.0 0.00 0.00 0.00 56 102.8
20260502020312 49 204 2.0 3.0 0.00 0.00 0.00 56 102.8
20260502020205 49 204 2.0 3.0 0.00 0.00 0.00 56 102.8
20260502020059 49 204 2.0 3.0 0.00 0.00 0.00 56 102.8
20260502015953 49 204 2.0 3.0 0.00 0.00 0.00 56 102.8
20260502015847 49 204 2.0 3.0 0.00 0.00 0.00 56 102.8
20260502015740 49 204 2.0 3.0 0.00 0.00 0.00 56 102.8
20260502015634 49 204 2.0 3.0 0.00 0.00 0.00 56 102.8
20260502015528 49 204 2.0 3.0 0.00 0.00 0.00 56 102.8
20260502015422 50 204 2.0 3.0 0.00 0.00 0.00 56 102.8
20260502015315 50 204 2.0 3.0 0.00 0.00 0.00 56 102.8
20260502015209 50 204 2.0 3.0 0.00 0.00 0.00 56 102.8
20260502015103 50 204 2.0 3.0 0.00 0.00 0.00 56 102.8
20260502014957 50 204 2.0 3.0 0.00 0.00 0.00 56 102.8
20260502014850 50 204 2.0 3.0 0.00 0.00 0.00 56 102.8
20260502014744 50 204 2.0 3.0 0.00 0.00 0.00 56 102.8
20260502014638 50 204 2.0 3.0 0.00 0.00 0.00 56 102.8
20260502014532 50 204 2.0 3.0 0.00 0.00 0.00 56 102.8
20260502014425 50 204 2.0 3.0 0.00 0.00 0.00 56 102.8
20260502014319 50 204 2.0 3.0 0.00 0.00 0.00 55 102.8
20260502014213 50 204 2.0 3.0 0.00 0.00 0.00 55 102.8
20260502014107 50 204 2.0 3.0 0.00 0.00 0.00 55 102.8
20260502014000 50 204 2.0 3.0 0.00 0.00 0.00 55 102.8
20260502013854 50 204 2.0 3.0 0.00 0.00 0.00 55 102.8
20260502013748 50 204 2.0 3.0 0.00 0.00 0.00 55 102.8
20260502013642 50 204 2.0 3.0 0.00 0.00 0.00 55 102.8
20260502013535 50 204 2.0 3.0 0.00 0.00 0.00 55 102.8
20260502013429 50 204 2.0 3.0 0.00 0.00 0.00 55 102.8
20260502013323 50 204 2.0 3.0 0.00 0.00 0.00 55 102.8
20260502013217 50 204 2.0 3.0 0.00 0.00 0.00 54 102.8
20260502013110 50 204 2.0 3.0 0.00 0.00 0.00 54 102.8
20260502013004 50 204 2.0 3.0 0.00 0.00 0.00 54 102.8
20260502012858 50 204 2.0 3.0 0.00 0.00 0.00 54 102.8
20260502012751 50 204 2.0 3.0 0.00 0.00 0.00 54 102.8
20260502012645 50 204 2.0 3.0 0.00 0.00 0.00 54 102.8
20260502012539 50 204 2.0 3.0 0.00 0.00 0.00 54 102.7
20260502012433 50 204 2.0 3.0 0.00 0.00 0.00 54 102.7
20260502012326 50 204 2.0 3.0 0.00 0.00 0.00 54 102.8
20260502012220 50 204 2.0 3.0 0.00 0.00 0.00 54 102.8
20260502012114 50 204 2.0 3.0 0.00 0.00 0.00 54 102.8
20260502012008 50 204 2.0 3.0 0.00 0.00 0.00 54 102.8
20260502011901 50 204 2.0 3.0 0.00 0.00 0.00 54 102.8
20260502011755 50 204 2.0 3.0 0.00 0.00 0.00 54 102.8
20260502011649 50 204 2.0 3.0 0.00 0.00 0.00 54 102.8
20260502011543 50 204 2.0 3.0 0.00 0.00 0.00 54 102.8
20260502011436 50 204 2.0 3.0 0.00 0.00 0.00 54 102.8
20260502011330 50 204 2.0 3.0 0.00 0.00 0.00 54 102.8
20260502011224 50 204 2.0 3.0 0.00 0.00 0.00 54 102.8
20260502011118 50 204 2.0 3.0 0.00 0.00 0.00 54 102.8
20260502011011 50 204 2.0 3.0 0.00 0.00 0.00 54 102.8
20260502010905 50 204 2.0 3.0 0.00 0.00 0.00 54 102.8
20260502010759 50 204 2.0 3.0 0.00 0.00 0.00 54 102.8
20260502010653 50 204 2.0 3.0 0.00 0.00 0.00 53 102.8
20260502010546 50 204 2.0 3.0 0.00 0.00 0.00 53 102.8
20260502010440 50 204 2.0 3.0 0.00 0.00 0.00 53 102.8
20260502010334 50 204 2.0 3.0 0.00 0.00 0.00 53 102.8
20260502010227 50 204 2.0 3.0 0.00 0.00 0.00 53 102.8
20260502010121 50 204 2.0 3.0 0.00 0.00 0.00 53 102.8
20260502010015 50 204 2.0 3.0 0.00 0.00 0.00 53 102.8
20260502005908 50 204 2.0 3.0 0.00 0.00 0.00 53 102.8
20260502005802 50 204 2.0 3.0 0.00 0.00 0.00 53 102.8
20260502005656 50 204 2.0 3.0 0.00 0.00 0.00 53 102.8
20260502005550 50 204 2.0 3.0 0.00 0.00 0.00 52 102.8
20260502005443 50 204 2.0 3.0 0.00 0.00 0.00 52 102.8
20260502005337 50 204 2.0 3.0 0.00 0.00 0.00 52 102.8
20260502005231 50 204 2.0 3.0 0.00 0.00 0.00 52 102.8
20260502005125 50 204 2.0 3.0 0.00 0.00 0.00 52 102.8
20260502005019 50 204 2.0 3.0 0.00 0.00 0.00 52 102.8
20260502004912 50 204 2.0 3.0 0.00 0.00 0.00 52 102.8
20260502004806 51 204 2.0 3.0 0.00 0.00 0.00 50 102.8
20260502004700 51 204 2.0 3.0 0.00 0.00 0.00 50 102.8
20260502004554 51 204 2.0 3.0 0.00 0.00 0.00 50 102.8
20260502004447 51 204 2.0 3.0 0.00 0.00 0.00 50 102.8
20260502004341 51 204 2.0 3.0 0.00 0.00 0.00 50 102.8
20260502004235 51 204 2.0 3.0 0.00 0.00 0.00 50 102.8
20260502004129 51 204 2.0 3.0 0.00 0.00 0.00 50 102.8
20260502004022 51 204 2.0 3.0 0.00 0.00 0.00 50 102.8
20260502003916 51 204 2.0 3.0 0.00 0.00 0.00 50 102.8
20260502003810 51 204 2.0 3.0 0.00 0.00 0.00 50 102.8
20260502003704 51 204 2.0 3.0 0.00 0.00 0.00 50 102.7
20260502003557 51 204 2.0 3.0 0.00 0.00 0.00 50 102.7
20260502003451 51 204 2.0 3.0 0.00 0.00 0.00 50 102.7
20260502003345 51 204 2.0 3.0 0.00 0.00 0.00 50 102.7
20260502003239 51 204 2.0 3.0 0.00 0.00 0.00 50 102.7
20260502003132 51 204 2.0 3.0 0.00 0.00 0.00 50 102.7
20260502003026 51 204 2.0 3.0 0.00 0.00 0.00 50 102.7
20260502002920 51 204 2.0 3.0 0.00 0.00 0.00 50 102.7
20260502002814 51 204 2.0 3.0 0.00 0.00 0.00 50 102.7
20260502002708 51 204 2.0 3.0 0.00 0.00 0.00 50 102.7
20260502002601 51 204 2.0 3.0 0.00 0.00 0.00 50 102.7
20260502002455 51 204 2.0 3.0 0.00 0.00 0.00 50 102.7
20260502002349 51 204 2.0 3.0 0.00 0.00 0.00 50 102.7
20260502002242 51 204 2.0 3.0 0.00 0.00 0.00 50 102.7
20260502002136 51 204 2.0 3.0 0.00 0.00 0.00 50 102.7
20260502002030 51 204 2.0 3.0 0.00 0.00 0.00 50 102.7
20260502001924 51 204 2.0 3.0 0.00 0.00 0.00 50 102.7
20260502001817 51 204 2.0 3.0 0.00 0.00 0.00 51 102.7
20260502001711 51 204 2.0 3.0 0.00 0.00 0.00 53 102.7
20260502001605 51 204 2.0 3.0 0.00 0.00 0.00 53 102.7
20260502001459 51 204 2.0 3.0 0.00 0.00 0.00 53 102.7
20260502001353 51 204 2.0 3.0 0.00 0.00 0.00 53 102.7
20260502001246 51 204 2.0 3.0 0.00 0.00 0.00 53 102.7
20260502001140 51 204 2.0 3.0 0.00 0.00 0.00 53 102.7
20260502001034 51 204 2.0 3.0 0.00 0.00 0.00 53 102.7
20260502000928 51 204 2.0 3.0 0.00 0.00 0.00 53 102.7
20260502000821 51 204 2.0 3.0 0.00 0.00 0.00 53 102.7
20260502000715 51 204 2.0 3.0 0.00 0.00 0.00 53 102.7
20260502000609 51 204 2.0 3.0 0.00 0.00 0.00 52 102.8
20260502000503 51 204 2.0 3.0 0.00 0.00 0.00 52 102.8
20260502000356 51 204 2.0 3.0 0.00 0.00 0.00 52 102.8
20260502000250 51 204 2.0 3.0 0.00 0.00 0.00 52 102.8
20260502000144 51 204 2.0 3.0 0.00 0.00 0.00 52 102.8
20260502000038 51 204 2.0 3.0 0.00 0.00 0.00 52 102.8
20260501235931 51 204 2.0 3.0 0.00 0.00 0.00 52 102.8
20260501235825 51 204 2.0 3.0 0.00 0.00 0.00 52 102.8
20260501235719 51 204 2.0 3.0 0.00 0.00 0.00 52 102.8
20260501235613 51 204 2.0 3.0 0.00 0.00 0.00 52 102.8
20260501235506 52 204 2.0 3.0 0.00 0.00 0.00 51 102.8
20260501235400 52 204 2.0 3.0 0.00 0.00 0.00 51 102.8
20260501235254 52 204 2.0 3.0 0.00 0.00 0.00 51 102.8
20260501235147 52 204 2.0 3.0 0.00 0.00 0.00 51 102.8
20260501235041 52 204 2.0 3.0 0.00 0.00 0.00 51 102.8
20260501234935 52 204 2.0 3.0 0.00 0.00 0.00 51 102.8
20260501234829 52 204 2.0 3.0 0.00 0.00 0.00 51 102.8
20260501234722 53 204 2.0 3.0 0.00 0.00 0.00 49 102.8
20260501234616 53 204 2.0 3.0 0.00 0.00 0.00 49 102.8
20260501234510 53 204 2.0 3.0 0.00 0.00 0.00 49 102.8
20260501234404 53 204 2.0 3.0 0.00 0.00 0.00 49 102.8
20260501234257 53 204 2.0 3.0 0.00 0.00 0.00 49 102.8
20260501234151 53 204 2.0 3.0 0.00 0.00 0.00 49 102.8
20260501234045 53 204 2.0 3.0 0.00 0.00 0.00 49 102.8
20260501233939 53 204 2.0 3.0 0.00 0.00 0.00 49 102.8
20260501233832 53 204 2.0 3.0 0.00 0.00 0.00 49 102.8
20260501233726 53 204 2.0 3.0 0.00 0.00 0.00 49 102.8
20260501233620 53 204 2.0 3.0 0.00 0.00 0.00 49 102.7
20260501233514 53 204 2.0 3.0 0.00 0.00 0.00 49 102.7
20260501233408 53 204 2.0 3.0 0.00 0.00 0.00 49 102.7
20260501233301 53 204 2.0 3.0 0.00 0.00 0.00 49 102.7
20260501233155 53 204 2.0 3.0 0.00 0.00 0.00 49 102.7
20260501233049 53 204 2.0 3.0 0.00 0.00 0.00 49 102.7
20260501232943 53 204 2.0 3.0 0.00 0.00 0.00 49 102.7
20260501232836 53 204 2.0 3.0 0.00 0.00 0.00 49 102.7
20260501232730 53 204 2.0 3.0 0.00 0.00 0.00 49 102.7
20260501232624 53 204 2.0 3.0 0.00 0.00 0.00 49 102.7
20260501232518 53 204 2.0 3.0 0.00 0.00 0.00 48 102.7
20260501232411 53 204 2.0 3.0 0.00 0.00 0.00 48 102.7
20260501232306 53 204 2.0 3.0 0.00 0.00 0.00 48 102.7
20260501232159 53 204 2.0 3.0 0.00 0.00 0.00 48 102.7
20260501232053 53 204 2.0 3.0 0.00 0.00 0.00 48 102.7
20260501231946 53 204 2.0 3.0 0.00 0.00 0.00 48 102.7
20260501231840 53 204 2.0 3.0 0.00 0.00 0.00 46 102.7
20260501231734 53 204 2.0 3.0 0.00 0.00 0.00 46 102.7
20260501231628 53 204 2.0 3.0 0.00 0.00 0.00 46 102.7
20260501231522 53 204 2.0 3.0 0.00 0.00 0.00 46 102.7
20260501231415 53 204 2.0 3.0 0.00 0.00 0.00 46 102.7
20260501231309 53 204 2.0 3.0 0.00 0.00 0.00 46 102.7
20260501231203 53 204 2.0 3.0 0.00 0.00 0.00 46 102.7
20260501231057 53 204 2.0 3.0 0.00 0.00 0.00 46 102.7
20260501230951 53 204 2.0 3.0 0.00 0.00 0.00 46 102.7
20260501230844 53 204 2.0 3.0 0.00 0.00 0.00 46 102.7
20260501230738 53 204 2.0 3.0 0.00 0.00 0.00 41 102.8
20260501230632 53 204 2.0 3.0 0.00 0.00 0.00 41 102.8
20260501230526 53 204 2.0 3.0 0.00 0.00 0.00 41 102.8
20260501230419 53 204 2.0 3.0 0.00 0.00 0.00 41 102.8
20260501230313 53 204 2.0 3.0 0.00 0.00 0.00 41 102.8
20260501230207 53 204 2.0 3.0 0.00 0.00 0.00 41 102.8
20260501230101 53 204 2.0 3.0 0.00 0.00 0.00 41 102.8
20260501225955 53 204 2.0 3.0 0.00 0.00 0.00 41 102.8
20260501225848 53 204 2.0 3.0 0.00 0.00 0.00 41 102.8
20260501225742 53 204 2.0 3.0 0.00 0.00 0.00 41 102.8
20260501225636 53 204 2.0 3.0 0.00 0.00 0.00 41 102.8
20260501225530 53 204 2.0 3.0 0.00 0.00 0.00 41 102.8
20260501225423 53 204 2.0 3.0 0.00 0.00 0.00 41 102.8
20260501225317 53 204 2.0 3.0 0.00 0.00 0.00 41 102.8
20260501225211 53 204 2.0 3.0 0.00 0.00 0.00 34 102.8
20260501225105 53 204 2.0 3.0 0.00 0.00 0.00 34 102.8
20260501224959 53 204 2.0 3.0 0.00 0.00 0.00 34 102.8
20260501224852 53 204 2.0 3.0 0.00 0.00 0.00 34 102.8
20260501224746 53 204 2.0 3.0 0.00 0.00 0.00 34 102.8
20260501224640 53 204 2.0 3.0 0.00 0.00 0.00 34 102.8
20260501224534 53 204 2.0 3.0 0.00 0.00 0.00 34 102.8
20260501224428 53 204 2.0 3.0 0.00 0.00 0.00 34 102.8
20260501224321 53 204 2.0 3.0 0.00 0.00 0.00 34 102.8
20260501224215 53 204 2.0 3.0 0.00 0.00 0.00 34 102.8
20260501224109 54 204 2.0 3.0 0.00 0.00 0.00 37 102.8
20260501224003 54 204 2.0 3.0 0.00 0.00 0.00 37 102.8
20260501223856 54 204 2.0 3.0 0.00 0.00 0.00 37 102.8
20260501223750 54 204 2.0 3.0 0.00 0.00 0.00 37 102.8
20260501223644 54 204 2.0 3.0 0.00 0.00 0.00 37 102.8
20260501223537 54 204 2.0 3.0 0.00 0.00 0.00 37 102.8
20260501223431 54 204 2.0 3.0 0.00 0.00 0.00 37 102.8
20260501223325 54 204 2.0 3.0 0.00 0.00 0.00 37 102.8
20260501223219 54 204 2.0 3.0 0.00 0.00 0.00 37 102.8
20260501223112 54 204 2.0 3.0 0.00 0.00 0.00 37 102.8
20260501223006 55 204 2.0 3.0 0.00 0.00 0.00 41 102.7
20260501222900 55 204 2.0 3.0 0.00 0.00 0.00 41 102.7
20260501222754 55 204 2.0 3.0 0.00 0.00 0.00 41 102.7
20260501222647 55 204 2.0 3.0 0.00 0.00 0.00 41 102.7
20260501222541 55 204 2.0 3.0 0.00 0.00 0.00 41 102.7
20260501222435 55 204 2.0 3.0 0.00 0.00 0.00 41 102.7
20260501222329 55 204 2.0 3.0 0.00 0.00 0.00 41 102.7
20260501222222 55 204 2.0 3.0 0.00 0.00 0.00 41 102.7
20260501222116 55 204 2.0 3.0 0.00 0.00 0.00 41 102.7
20260501222010 55 204 2.0 3.0 0.00 0.00 0.00 37 102.7
20260501221904 55 204 2.0 3.0 0.00 0.00 0.00 37 102.7
20260501221757 55 204 2.0 3.0 0.00 0.00 0.00 37 102.7
20260501221651 55 204 2.0 3.0 0.00 0.00 0.00 37 102.7
20260501221545 55 204 2.0 3.0 0.00 0.00 0.00 37 102.7
20260501221439 55 204 2.0 3.0 0.00 0.00 0.00 37 102.7
20260501221332 55 204 2.0 3.0 0.00 0.00 0.00 37 102.7
20260501221226 55 204 2.0 3.0 0.00 0.00 0.00 37 102.7
20260501221120 55 204 2.0 3.0 0.00 0.00 0.00 37 102.7
20260501221014 55 204 2.0 3.0 0.00 0.00 0.00 37 102.7
20260501220907 55 204 2.0 3.0 0.00 0.00 0.00 28 102.8
20260501220801 55 204 2.0 3.0 0.00 0.00 0.00 28 102.8
20260501220655 55 204 2.0 3.0 0.00 0.00 0.00 28 102.8
20260501220549 55 204 2.0 3.0 0.00 0.00 0.00 28 102.8
20260501220442 55 204 2.0 3.0 0.00 0.00 0.00 28 102.8
20260501220336 55 204 2.0 3.0 0.00 0.00 0.00 28 102.8
20260501220230 55 204 2.0 3.0 0.00 0.00 0.00 28 102.8
20260501220124 55 204 2.0 3.0 0.00 0.00 0.00 28 102.8
20260501220017 55 204 2.0 3.0 0.00 0.00 0.00 28 102.8
20260501215911 55 204 2.0 3.0 0.00 0.00 0.00 28 102.8
20260501215805 55 204 2.0 3.0 0.00 0.00 0.00 28 102.8
20260501215659 55 204 2.0 3.0 0.00 0.00 0.00 28 102.8
20260501215553 55 204 2.0 3.0 0.00 0.00 0.00 28 102.8
20260501215446 55 204 2.0 3.0 0.00 0.00 0.00 28 102.8
20260501215340 55 204 2.0 3.0 0.00 0.00 0.00 28 102.8
20260501215234 55 204 2.0 3.0 0.00 0.00 0.00 28 102.8
20260501215128 55 204 2.0 3.0 0.00 0.00 0.00 28 102.8
20260501215021 55 204 2.0 3.0 0.00 0.00 0.00 28 102.8
20260501214915 55 204 2.0 3.0 0.00 0.00 0.00 28 102.8
20260501214809 55 204 2.0 3.0 0.00 0.00 0.00 28 102.8
20260501214703 55 204 2.0 3.0 0.00 0.00 0.00 28 102.8
20260501214556 55 204 2.0 3.0 0.00 0.00 0.00 28 102.8
20260501214450 55 204 2.0 3.0 0.00 0.00 0.00 28 102.8
20260501214344 55 204 2.0 3.0 0.00 0.00 0.00 28 102.8
20260501214238 55 204 2.0 3.0 0.00 0.00 0.00 28 102.8
20260501214132 55 204 2.0 3.0 0.00 0.00 0.00 28 102.8
20260501214025 55 204 2.0 3.0 0.00 0.00 0.00 28 102.8
20260501213919 55 204 2.0 3.0 0.00 0.00 0.00 28 102.7
20260501213813 55 204 2.0 3.0 0.00 0.00 0.00 28 102.7
20260501213707 55 204 2.0 3.0 0.00 0.00 0.00 28 102.7
20260501213601 55 204 2.0 3.0 0.00 0.00 0.00 28 102.7
20260501213454 55 204 2.0 3.0 0.00 0.00 0.00 28 102.7
20260501213348 55 204 2.0 3.0 0.00 0.00 0.00 28 102.7
20260501213242 55 204 2.0 3.0 0.00 0.00 0.00 28 102.7
20260501213136 55 204 2.0 3.0 0.00 0.00 0.00 28 102.7
20260501213029 55 204 2.0 3.0 0.00 0.00 0.00 28 102.7
20260501212923 55 204 2.0 3.0 0.00 0.00 0.00 28 102.7
20260501212817 55 204 2.0 3.0 0.00 0.00 0.00 28 102.6
20260501212711 55 204 2.0 3.0 0.00 0.00 0.00 28 102.6
20260501212604 55 204 2.0 3.0 0.00 0.00 0.00 28 102.6
20260501212458 55 204 2.0 3.0 0.00 0.00 0.00 28 102.6
20260501212352 55 204 2.0 3.0 0.00 0.00 0.00 28 102.6
20260501212246 55 204 2.0 3.0 0.00 0.00 0.00 28 102.6
20260501212139 55 204 2.0 3.0 0.00 0.00 0.00 28 102.6
20260501212033 55 204 2.0 3.0 0.00 0.00 0.00 28 102.6
20260501211927 55 204 2.0 3.0 0.00 0.00 0.00 28 102.6
20260501211820 55 204 2.0 3.0 0.00 0.00 0.00 28 102.6
20260501211714 55 204 2.0 3.0 0.00 0.00 0.00 28 102.6
20260501211608 55 204 2.0 3.0 0.00 0.00 0.00 28 102.6
20260501211502 55 204 2.0 3.0 0.00 0.00 0.00 28 102.6
20260501211355 55 204 2.0 3.0 0.00 0.00 0.00 28 102.6
20260501211249 55 204 2.0 3.0 0.00 0.00 0.00 28 102.6
20260501211143 55 204 2.0 3.0 0.00 0.00 0.00 28 102.6
20260501211036 55 204 2.0 3.0 0.00 0.00 0.00 28 102.6
20260501210930 55 204 2.0 3.0 0.00 0.00 0.00 28 102.6
20260501210824 55 204 2.0 3.0 0.00 0.00 0.00 28 102.6
20260501210718 55 204 2.0 3.0 0.00 0.00 0.00 28 102.6
20260501210612 55 204 2.0 3.0 0.00 0.00 0.00 28 102.6
20260501210505 55 204 2.0 3.0 0.00 0.00 0.00 28 102.6
20260501210359 55 204 2.0 3.0 0.00 0.00 0.00 28 102.6
20260501210253 55 204 2.0 3.0 0.00 0.00 0.00 28 102.7
20260501210147 55 204 2.0 3.0 0.00 0.00 0.00 28 102.7
20260501210040 55 204 2.0 3.0 0.00 0.00 0.00 28 102.7
20260501205934 55 204 2.0 3.0 0.00 0.00 0.00 28 102.7
20260501205828 55 204 2.0 3.0 0.00 0.00 0.00 28 102.7
20260501205721 55 204 2.0 3.0 0.00 0.00 0.00 28 102.7
20260501205615 55 204 2.0 3.0 0.00 0.00 0.00 28 102.7
20260501205509 55 204 2.0 3.0 0.00 0.00 0.00 28 102.7
20260501205403 55 204 2.0 3.0 0.00 0.00 0.00 28 102.7
20260501205256 55 204 2.0 3.0 0.00 0.00 0.00 28 102.7
20260501205150 55 204 2.0 3.0 0.00 0.00 0.00 28 102.7
20260501205044 55 204 2.0 3.0 0.00 0.00 0.00 28 102.7
20260501204938 55 204 2.0 3.0 0.00 0.00 0.00 28 102.7
20260501204831 55 204 2.0 3.0 0.00 0.00 0.00 28 102.7
20260501204725 55 204 2.0 3.0 0.00 0.00 0.00 28 102.7
20260501204619 55 204 2.0 3.0 0.00 0.00 0.00 28 102.7
20260501204512 55 204 2.0 3.0 0.00 0.00 0.00 28 102.7
20260501204406 55 204 2.0 3.0 0.00 0.00 0.00 28 102.7
20260501204300 55 204 2.0 3.0 0.00 0.00 0.00 28 102.7
20260501204154 55 204 2.0 3.0 0.00 0.00 0.00 28 102.7
20260501204047 55 204 2.0 3.0 0.00 0.00 0.00 28 102.7
20260501203941 55 204 2.0 3.0 0.00 0.00 0.00 28 102.7
20260501203835 55 204 2.0 3.0 0.00 0.00 0.00 28 102.7
20260501203729 55 204 2.0 3.0 0.00 0.00 0.00 28 102.7
20260501203622 55 204 2.0 3.0 0.00 0.00 0.00 28 102.7
20260501203516 58 203 3.0 3.0 0.00 0.00 0.00 26 102.6
20260501203410 58 203 3.0 3.0 0.00 0.00 0.00 26 102.6
20260501203304 58 203 3.0 3.0 0.00 0.00 0.00 26 102.6
20260501203157 58 203 3.0 3.0 0.00 0.00 0.00 26 102.6
20260501203051 58 203 3.0 3.0 0.00 0.00 0.00 26 102.6
20260501202945 58 203 3.0 3.0 0.00 0.00 0.00 26 102.6
20260501202839 58 203 3.0 3.0 0.00 0.00 0.00 26 102.6
20260501202732 58 203 3.0 3.0 0.00 0.00 0.00 26 102.6
20260501202626 58 203 3.0 3.0 0.00 0.00 0.00 26 102.6
20260501202520 58 203 3.0 3.0 0.00 0.00 0.00 26 102.6
20260501202413 58 203 3.0 3.0 0.00 0.00 0.00 26 102.6
20260501202307 58 203 3.0 3.0 0.00 0.00 0.00 26 102.6
20260501202201 58 203 3.0 3.0 0.00 0.00 0.00 26 102.6
20260501202055 58 203 3.0 3.0 0.00 0.00 0.00 26 102.6
20260501201949 58 203 3.0 3.0 0.00 0.00 0.00 26 102.6
20260501201842 58 203 3.0 3.0 0.00 0.00 0.00 26 102.6
20260501201736 58 203 3.0 3.0 0.00 0.00 0.00 26 102.6
20260501201630 58 203 3.0 3.0 0.00 0.00 0.00 26 102.6
20260501201524 58 203 3.0 3.0 0.00 0.00 0.00 26 102.6
20260501201417 58 203 3.0 3.0 0.00 0.00 0.00 26 102.6
20260501201311 58 203 3.0 3.0 0.00 0.00 0.00 26 102.6
20260501201205 58 203 3.0 3.0 0.00 0.00 0.00 26 102.6
20260501201059 58 203 3.0 3.0 0.00 0.00 0.00 26 102.6
20260501200952 58 203 3.0 3.0 0.00 0.00 0.00 26 102.6
20260501200846 58 203 3.0 3.0 0.00 0.00 0.00 25 102.6
20260501200739 58 203 3.0 3.0 0.00 0.00 0.00 25 102.6
20260501200633 58 203 3.0 3.0 0.00 0.00 0.00 25 102.6
20260501200527 58 203 3.0 3.0 0.00 0.00 0.00 24 102.7
20260501200420 58 203 3.0 3.0 0.00 0.00 0.00 24 102.7
20260501200314 58 203 3.0 3.0 0.00 0.00 0.00 24 102.7
20260501200208 58 203 3.0 3.0 0.00 0.00 0.00 24 102.7
20260501195955 58 203 3.0 3.0 0.00 0.00 0.00 24 102.7
20260501195849 58 203 3.0 3.0 0.00 0.00 0.00 24 102.7
20260501195743 58 203 3.0 3.0 0.00 0.00 0.00 24 102.7
20260501195636 58 203 3.0 3.0 0.00 0.00 0.00 24 102.7
20260501195530 58 203 3.0 3.0 0.00 0.00 0.00 24 102.7
20260501195424 58 203 3.0 3.0 0.00 0.00 0.00 24 102.7
20260501195318 58 203 3.0 3.0 0.00 0.00 0.00 24 102.7
20260501195211 58 203 3.0 3.0 0.00 0.00 0.00 24 102.7
20260501195105 58 203 3.0 3.0 0.00 0.00 0.00 24 102.7
20260501194959 58 203 3.0 3.0 0.00 0.00 0.00 24 102.7
20260501194853 58 203 3.0 3.0 0.00 0.00 0.00 24 102.7
20260501194747 58 203 3.0 3.0 0.00 0.00 0.00 24 102.7
20260501194640 58 203 3.0 3.0 0.00 0.00 0.00 24 102.7
20260501194534 58 203 3.0 3.0 0.00 0.00 0.00 24 102.7
20260501194428 58 203 3.0 3.0 0.00 0.00 0.00 24 102.7
20260501194322 58 203 3.0 3.0 0.00 0.00 0.00 24 102.7
20260501194216 58 203 3.0 3.0 0.00 0.00 0.00 24 102.7
20260501194109 58 203 3.0 3.0 0.00 0.00 0.00 24 102.7
20260501194003 58 203 3.0 3.0 0.00 0.00 0.00 24 102.7
20260501193857 58 203 3.0 3.0 0.00 0.00 0.00 24 102.7
20260501193751 58 203 3.0 3.0 0.00 0.00 0.00 24 102.7
20260501193644 58 203 3.0 3.0 0.00 0.00 0.00 24 102.7
20260501193538 58 203 3.0 3.0 0.00 0.00 0.00 24 102.6
20260501193432 58 203 3.0 3.0 0.00 0.00 0.00 24 102.6
20260501193326 58 203 3.0 3.0 0.00 0.00 0.00 24 102.6
20260501193219 58 203 3.0 3.0 0.00 0.00 0.00 24 102.6
20260501193113 58 203 3.0 3.0 0.00 0.00 0.00 24 102.6
20260501193007 58 203 3.0 3.0 0.00 0.00 0.00 24 102.6
20260501192901 58 203 3.0 3.0 0.00 0.00 0.00 24 102.6
20260501192754 58 203 3.0 3.0 0.00 0.00 0.00 24 102.6
20260501192648 58 203 3.0 3.0 0.00 0.00 0.00 24 102.6
20260501192542 58 203 3.0 3.0 0.00 0.00 0.00 24 102.6
20260501192436 58 203 3.0 4.0 0.00 0.00 0.00 24 102.6
20260501192329 58 203 3.0 4.0 0.00 0.00 0.00 24 102.6
20260501192223 58 203 3.0 4.0 0.00 0.00 0.00 24 102.6
20260501192117 58 203 3.0 3.0 0.00 0.00 0.00 24 102.6
20260501192010 58 203 3.0 4.0 0.00 0.00 0.00 24 102.6
20260501191904 58 203 3.0 4.0 0.00 0.00 0.00 24 102.6
20260501191758 58 203 3.0 4.0 0.00 0.00 0.00 24 102.6
20260501191652 58 203 3.0 4.0 0.00 0.00 0.00 24 102.6
20260501191545 58 203 3.0 4.0 0.00 0.00 0.00 24 102.6
20260501191439 58 203 3.0 5.0 0.00 0.00 0.00 24 102.5
20260501191333 58 203 3.0 5.0 0.00 0.00 0.00 24 102.5
20260501191227 58 203 4.0 6.0 0.00 0.00 0.00 24 102.5
20260501191120 58 203 4.0 6.0 0.00 0.00 0.00 24 102.5
20260501191014 58 203 4.0 6.0 0.00 0.00 0.00 24 102.5
20260501190908 58 203 4.0 6.0 0.00 0.00 0.00 24 102.5
20260501190801 58 203 4.0 6.0 0.00 0.00 0.00 24 102.5
20260501190655 58 203 4.0 6.0 0.00 0.00 0.00 24 102.5
20260501190549 66 0 2.0 0.0 0.00 0.00 0.00 49 102.6
20260501190443 66 0 2.0 0.0 0.00 0.00 0.00 49 102.6
20260501190337 66 0 2.0 0.0 0.00 0.00 0.00 49 102.6
20260501190230 66 0 2.0 0.0 0.00 0.00 0.00 49 102.6
20260501190124 66 0 2.0 0.0 0.00 0.00 0.00 49 102.6
20260501190018 66 0 2.0 0.0 0.00 0.00 0.00 49 102.6
20260501185911 66 0 2.0 0.0 0.00 0.00 0.00 49 102.6
20260501185805 66 0 2.0 0.0 0.00 0.00 0.00 49 102.6
20260501185659 66 0 2.0 0.0 0.00 0.00 0.00 49 102.6
20260501185552 66 0 2.0 0.0 0.00 0.00 0.00 49 102.6
20260501185446 66 0 2.0 0.0 0.00 0.00 0.00 49 102.6
20260501185339 66 0 2.0 0.0 0.00 0.00 0.00 49 102.6
20260501185233 66 0 2.0 0.0 0.00 0.00 0.00 49 102.6
20260501185127 66 0 2.0 0.0 0.00 0.00 0.00 49 102.6
20260501185021 66 0 2.0 0.0 0.00 0.00 0.00 49 102.6
20260501184914 66 0 2.0 0.0 0.00 0.00 0.00 49 102.6
20260501184808 66 0 2.0 0.0 0.00 0.00 0.00 49 102.6
20260501184702 66 0 2.0 0.0 0.00 0.00 0.00 49 102.6
20260501184556 66 0 2.0 0.0 0.00 0.00 0.00 49 102.6
20260501184449 66 0 2.0 0.0 0.00 0.00 0.00 49 102.6
20260501184343 66 0 2.0 0.0 0.00 0.00 0.00 49 102.6
20260501184237 66 0 2.0 0.0 0.00 0.00 0.00 49 102.6
20260501184131 66 0 2.0 0.0 0.00 0.00 0.00 49 102.6
20260501184024 66 0 2.0 0.0 0.00 0.00 0.00 49 102.6
20260501183918 66 0 2.0 0.0 0.00 0.00 0.00 49 102.6
20260501183812 66 0 2.0 0.0 0.00 0.00 0.00 49 102.6
20260501183705 63 193 3.0 7.0 0.00 0.00 0.00 26 102.4
20260501183559 63 193 3.0 7.0 0.00 0.00 0.00 26 102.4
20260501183453 63 193 3.0 7.0 0.00 0.00 0.00 26 102.4
20260501183347 63 193 3.0 7.0 0.00 0.00 0.00 26 102.4
20260501183240 63 193 3.0 7.0 0.00 0.00 0.00 26 102.4
20260501183134 63 193 3.0 7.0 0.00 0.00 0.00 26 102.4
20260501183028 63 193 3.0 7.0 0.00 0.00 0.00 26 102.4
20260501182922 63 193 3.0 7.0 0.00 0.00 0.00 26 102.4
20260501182815 63 193 3.0 7.0 0.00 0.00 0.00 26 102.4
20260501182709 63 193 3.0 8.0 0.00 0.00 0.00 28 102.4
20260501182602 63 193 4.0 9.0 0.00 0.00 0.00 31 102.3
20260501182456 63 193 4.0 9.0 0.00 0.00 0.00 31 102.3
20260501182350 63 193 4.0 9.0 0.00 0.00 0.00 31 102.3
20260501182244 63 193 4.0 9.0 0.00 0.00 0.00 31 102.3
20260501182137 63 193 4.0 9.0 0.00 0.00 0.00 31 102.3
20260501182031 63 193 4.0 9.0 0.00 0.00 0.00 31 102.3
20260501181925 63 193 4.0 9.0 0.00 0.00 0.00 31 102.3
20260501181818 63 193 4.0 9.0 0.00 0.00 0.00 31 102.3
20260501181712 63 193 4.0 9.0 0.00 0.00 0.00 31 102.3